Time,TemperatureF,DewpointF,PressureIn,WindDirection,WindDirectionDegrees,WindSpeedMPH,WindSpeedGustMPH,Humidity,HourlyPrecipIn,Conditions,Clouds,dailyrainin,SoftwareType,DateUTC
2013-08-26 00:03:00,65.8,40.8,30.24,NE,45,0.0,0.0,40,0.00,CLR,CLR,0.00,WeatherDisplay:10.37,2013-08-26 04:03:00,
2013-08-26 00:18:00,65.7,42.5,30.24,NE,45,0.0,0.0,43,0.00,CLR,CLR,0.00,WeatherDisplay:10.37,2013-08-26 04:18:00,
2013-08-26 00:33:00,65.8,43.9,30.24,NE,45,0.0,0.0,45,0.00,CLR,CLR,0.00,WeatherDisplay:10.37,2013-08-26 04:33:00,
2013-08-26 00:48:00,65.5,43.0,30.24,NE,45,0.0,0.0,44,0.00,CLR,CLR,0.00,WeatherDisplay:10.37,2013-08-26 04:48:00,
2013-08-26 01:03:00,65.1,42.7,30.24,NE,45,0.0,0.0,44,0.00,CLR,CLR,0.00,WeatherDisplay:10.37,2013-08-26 05:03:00,
2013-08-26 01:18:00,65.1,43.8,30.24,NE,45,0.0,0.0,46,0.00,CLR,CLR,0.00,WeatherDisplay:10.37,2013-08-26 05:18:00,
2013-08-26 01:33:00,65.3,44.5,30.24,NE,45,0.0,0.0,47,0.00,CLR,CLR,0.00,WeatherDisplay:10.37,2013-08-26 05:33:00,
2013-08-26 01:48:00,65.3,44.5,30.24,NE,45,0.0,0.0,47,0.00,CLR,CLR,0.00,WeatherDisplay:10.37,2013-08-26 05:48:00,
2013-08-26 02:03:00,65.3,46.7,30.21,NE,45,0.0,0.0,51,0.00,CLR,CLR,0.00,WeatherDisplay:10.37,2013-08-26 06:03:00,
2013-08-26 02:18:00,65.1,49.0,30.24,NE,45,0.0,0.0,56,0.00,CLR,CLR,0.00,WeatherDisplay:10.37,2013-08-26 06:18:00,
2013-08-26 02:33:00,65.3,47.7,30.24,SSW,202,0.0,1.0,53,0.00,CLR,CLR,0.00,WeatherDisplay:10.37,2013-08-26 06:33:00,
2013-08-26 02:48:00,65.5,46.9,30.24,SSW,202,0.0,0.0,51,0.00,CLR,CLR,0.00,WeatherDisplay:10.37,2013-08-26 06:48:00,
2013-08-26 03:03:00,65.7,47.0,30.24,SSW,202,0.0,0.0,51,0.00,CLR,CLR,0.00,WeatherDisplay:10.37,2013-08-26 07:03:00,
2013-08-26 03:04:00,66.0,47.4,30.27,SSW,202,0.0,0.0,51,0.00,CLR,CLR,0.00,WeatherDisplay:10.37,2013-08-26 07:04:00,
2013-08-26 03:05:00,66.0,47.4,30.27,SSW,202,0.0,0.0,51,0.00,CLR,CLR,0.00,WeatherDisplay:10.37,2013-08-26 07:05:00,
2013-08-26 03:06:00,66.0,47.4,30.27,SSW,202,0.0,0.0,51,0.00,CLR,CLR,0.00,WeatherDisplay:10.37,2013-08-26 07:06:00,
2013-08-26 03:07:00,66.0,47.4,30.27,SSW,202,0.0,0.0,51,0.00,CLR,CLR,0.00,WeatherDisplay:10.37,2013-08-26 07:07:00,
2013-08-26 03:08:00,66.0,47.4,30.27,SSW,202,0.0,0.0,51,0.00,CLR,CLR,0.00,WeatherDisplay:10.37,2013-08-26 07:08:00,
2013-08-26 03:09:00,66.0,47.4,30.27,SSW,202,0.0,0.0,51,0.00,CLR,CLR,0.00,WeatherDisplay:10.37,2013-08-26 07:09:00,
2013-08-26 03:10:00,66.0,47.4,30.27,SSW,202,0.0,0.0,51,0.00,CLR,CLR,0.00,WeatherDisplay:10.37,2013-08-26 07:10:00,
2013-08-26 03:11:00,66.0,47.4,30.27,SSW,202,0.0,0.0,51,0.00,CLR,CLR,0.00,WeatherDisplay:10.37,2013-08-26 07:11:00,
2013-08-26 03:12:00,66.0,47.4,30.27,SSW,202,0.0,0.0,51,0.00,CLR,CLR,0.00,WeatherDisplay:10.37,2013-08-26 07:12:00,
2013-08-26 03:13:00,66.0,47.4,30.27,SSW,202,0.0,0.0,51,0.00,CLR,CLR,0.00,WeatherDisplay:10.37,2013-08-26 07:13:00,
2013-08-26 03:14:00,66.0,47.4,30.27,SSW,202,0.0,0.0,51,0.00,CLR,CLR,0.00,WeatherDisplay:10.37,2013-08-26 07:14:00,
2013-08-26 03:15:00,66.0,47.4,30.27,SSW,202,0.0,0.0,51,0.00,CLR,CLR,0.00,WeatherDisplay:10.37,2013-08-26 07:15:00,
2013-08-26 03:16:00,66.0,47.4,30.27,SSW,202,0.0,0.0,51,0.00,CLR,CLR,0.00,WeatherDisplay:10.37,2013-08-26 07:16:00,
2013-08-26 03:17:00,66.0,47.4,30.27,SSW,202,0.0,0.0,51,0.00,CLR,CLR,0.00,WeatherDisplay:10.37,2013-08-26 07:17:00,
2013-08-26 03:18:00,66.0,47.4,30.27,SSW,202,0.0,0.0,51,0.00,CLR,CLR,0.00,WeatherDisplay:10.37,2013-08-26 07:18:00,
2013-08-26 08:06:00,65.7,47.0,30.24,SSW,202,2.2,0.0,51,0.00,CLR,,0.00,WeatherDisplay:10.37,2013-08-26 12:06:00,
2013-08-26 08:07:00,65.8,47.2,30.24,SSW,202,0.0,0.0,51,0.00,CLR,,0.00,WeatherDisplay:10.37,2013-08-26 12:07:00,
2013-08-26 08:09:00,65.8,47.2,30.24,SSW,202,0.0,0.0,51,0.00,CLR,,0.00,WeatherDisplay:10.37,2013-08-26 12:09:00,
2013-08-26 08:14:00,65.8,47.2,30.24,SSW,202,0.0,0.0,51,0.00,CLR,,0.00,WeatherDisplay:10.37,2013-08-26 12:14:00,
2013-08-26 08:20:00,66.0,47.4,30.27,SSW,202,0.0,0.0,51,0.00,CLR,,0.00,WeatherDisplay:10.37,2013-08-26 12:20:00,
2013-08-26 08:25:00,66.2,47.5,30.27,SSW,202,0.0,0.0,51,0.00,CLR,,0.00,WeatherDisplay:10.37,2013-08-26 12:25:00,
2013-08-26 08:30:00,66.4,47.7,30.27,SSW,202,0.0,0.0,51,0.00,CLR,,0.00,WeatherDisplay:10.37,2013-08-26 12:30:00,
2013-08-26 08:35:00,66.6,47.9,30.27,SSW,202,0.0,0.0,51,0.00,CLR,,0.00,WeatherDisplay:10.37,2013-08-26 12:35:00,
2013-08-26 08:40:00,66.7,48.0,30.27,SSW,202,1.2,0.0,51,0.00,CLR,,0.00,WeatherDisplay:10.37,2013-08-26 12:40:00,
2013-08-26 08:46:00,67.1,48.4,30.27,SSW,202,1.2,1.2,51,0.00,CLR,,0.00,WeatherDisplay:10.37,2013-08-26 12:46:00,
2013-08-26 08:48:00,90.5,30.9,30.24,SW,236,1.0,4.0,12,0.00,CLR,CLR,0.00,WeatherDisplay:10.37,2013-08-26 12:48:00,
2013-08-26 08:51:00,67.5,48.7,30.27,SW,225,2.2,2.2,51,0.00,CLR,,0.00,WeatherDisplay:10.37,2013-08-26 12:51:00,
2013-08-26 08:56:00,68.0,49.2,30.27,SW,225,1.6,1.6,51,0.00,CLR,,0.00,WeatherDisplay:10.37,2013-08-26 12:56:00,
2013-08-26 09:01:00,68.4,49.5,30.27,SW,225,2.3,2.3,51,0.00,CLR,,0.00,WeatherDisplay:10.37,2013-08-26 13:01:00,
2013-08-26 09:03:00,87.6,30.7,30.24,WSW,253,3.0,6.0,13,0.00,CLR,CLR,0.00,WeatherDisplay:10.37,2013-08-26 13:03:00,
2013-08-26 09:06:00,68.9,50.0,30.27,SW,225,1.2,1.2,51,0.00,CLR,,0.00,WeatherDisplay:10.37,2013-08-26 13:06:00,
2013-08-26 09:12:00,69.4,50.5,30.27,SW,225,2.3,2.3,51,0.00,CLR,,0.00,WeatherDisplay:10.37,2013-08-26 13:12:00,
2013-08-26 09:17:00,70.2,69.3,30.27,SW,225,3.6,3.6,97,0.00,FEW,,0.00,WeatherDisplay:10.37,2013-08-26 13:17:00,
2013-08-26 09:18:00,90.5,30.9,30.24,SW,222,3.0,6.0,12,0.00,CLR,CLR,0.00,WeatherDisplay:10.37,2013-08-26 13:18:00,
2013-08-26 09:22:00,70.5,69.6,30.27,SW,225,2.3,2.3,97,0.00,FEW,,0.00,WeatherDisplay:10.37,2013-08-26 13:22:00,
2013-08-26 09:27:00,71.1,70.2,30.27,South,180,2.3,2.3,97,0.00,FEW,,0.00,WeatherDisplay:10.37,2013-08-26 13:27:00,
2013-08-26 09:32:00,72.0,71.1,30.27,SW,225,2.3,2.3,97,0.00,FEW,,0.00,WeatherDisplay:10.37,2013-08-26 13:32:00,
2013-08-26 09:33:00,91.2,31.5,30.24,WSW,246,2.0,6.0,12,0.00,CLR,CLR,0.00,WeatherDisplay:10.37,2013-08-26 13:33:00,
2013-08-26 09:38:00,73.0,69.6,30.27,SW,225,3.5,3.5,89,0.00,FEW,,0.00,WeatherDisplay:10.37,2013-08-26 13:38:00,
2013-08-26 09:43:00,73.4,69.0,30.27,SW,225,2.6,2.6,86,0.00,FEW,,0.00,WeatherDisplay:10.37,2013-08-26 13:43:00,
2013-08-26 09:48:00,73.9,69.5,30.27,SW,225,3.5,3.5,86,0.00,FEW,,0.00,WeatherDisplay:10.37,2013-08-26 13:48:00,
2013-08-26 09:53:00,74.5,67.5,30.27,SW,225,4.6,4.6,79,0.00,FEW,,0.00,WeatherDisplay:10.37,2013-08-26 13:53:00,
2013-08-26 09:58:00,74.8,67.1,30.27,SW,225,4.6,4.6,77,0.00,FEW,,0.00,WeatherDisplay:10.37,2013-08-26 13:58:00,
2013-08-26 10:03:00,75.0,67.3,30.27,SW,225,4.6,4.6,77,0.00,FEW,,0.00,WeatherDisplay:10.37,2013-08-26 14:03:00,
2013-08-26 10:08:00,75.6,67.8,30.27,West,270,4.6,4.6,77,0.00,FEW,,0.00,WeatherDisplay:10.37,2013-08-26 14:08:00,
2013-08-26 10:13:00,76.1,67.6,30.27,West,270,6.9,6.9,75,0.00,FEW,,0.00,WeatherDisplay:10.37,2013-08-26 14:13:00,
2013-08-26 10:18:00,76.3,67.0,30.27,SW,225,6.9,6.9,73,0.00,CLR,,0.00,WeatherDisplay:10.37,2013-08-26 14:18:00,
2013-08-26 10:23:00,77.0,67.7,30.27,SW,225,4.6,4.6,73,0.00,CLR,,0.00,WeatherDisplay:10.37,2013-08-26 14:23:00,
2013-08-26 10:28:00,77.5,68.2,30.27,WSW,248,4.6,4.6,73,0.00,CLR,,0.00,WeatherDisplay:10.37,2013-08-26 14:28:00,
2013-08-26 10:33:00,78.1,68.7,30.27,WSW,248,4.5,4.5,73,0.00,CLR,,0.00,WeatherDisplay:10.37,2013-08-26 14:33:00,
2013-08-26 10:38:00,78.1,67.5,30.27,SW,225,5.8,5.8,70,0.00,CLR,,0.00,WeatherDisplay:10.37,2013-08-26 14:38:00,
2013-08-26 10:43:00,78.8,68.2,30.27,SW,225,4.6,4.6,70,0.00,CLR,,0.00,WeatherDisplay:10.37,2013-08-26 14:43:00,
2013-08-26 10:48:00,79.5,68.9,30.27,West,270,4.6,4.6,70,0.00,CLR,,0.00,WeatherDisplay:10.37,2013-08-26 14:48:00,
2013-08-26 10:53:00,79.0,68.4,30.27,West,270,5.8,5.8,70,0.00,CLR,,0.00,WeatherDisplay:10.37,2013-08-26 14:53:00,
2013-08-26 11:03:00,89.8,30.4,30.18,WSW,239,3.0,8.0,12,0.00,CLR,CLR,0.00,WeatherDisplay:10.37,2013-08-26 15:03:00,
2013-08-26 11:18:00,90.5,30.9,30.18,SW,222,5.0,7.0,12,0.00,CLR,CLR,0.00,WeatherDisplay:10.37,2013-08-26 15:18:00,
2013-08-26 11:33:00,90.7,31.1,30.18,WSW,238,2.0,6.0,12,0.00,CLR,CLR,0.00,WeatherDisplay:10.37,2013-08-26 15:33:00,
2013-08-26 11:48:00,88.9,31.7,30.15,WSW,247,3.0,6.0,13,0.00,CLR,CLR,0.00,WeatherDisplay:10.37,2013-08-26 15:48:00,
2013-08-26 12:03:00,88.7,31.5,30.15,SW,227,5.0,6.0,13,0.00,CLR,CLR,0.00,WeatherDisplay:10.37,2013-08-26 16:03:00,
2013-08-26 12:18:00,86.9,30.1,30.15,SW,236,2.0,6.0,13,0.00,CLR,CLR,0.00,WeatherDisplay:10.37,2013-08-26 16:18:00,
2013-08-26 12:33:00,87.3,30.4,30.15,SW,234,3.0,4.0,13,0.00,CLR,CLR,0.00,WeatherDisplay:10.37,2013-08-26 16:33:00,
2013-08-26 12:48:00,87.3,30.4,30.15,SW,218,6.0,7.0,13,0.00,CLR,CLR,0.00,WeatherDisplay:10.37,2013-08-26 16:48:00,
2013-08-26 13:03:00,85.8,29.3,30.15,SSW,213,6.0,6.0,13,0.00,CLR,CLR,0.00,WeatherDisplay:10.37,2013-08-26 17:03:00,
2013-08-26 13:18:00,85.6,29.1,30.15,SW,229,3.0,6.0,13,0.00,CLR,CLR,0.00,WeatherDisplay:10.37,2013-08-26 17:18:00,
2013-08-26 13:33:00,84.6,28.3,30.15,SW,232,2.0,7.0,13,0.00,CLR,CLR,0.00,WeatherDisplay:10.37,2013-08-26 17:33:00,
2013-08-26 13:41:00,89.2,77.3,30.24,SW,225,6.9,6.9,68,0.00,CLR,,0.00,WeatherDisplay:10.37,2013-08-26 17:41:00,
2013-08-26 13:48:00,83.5,29.2,30.15,SW,225,2.0,6.0,14,0.00,CLR,CLR,0.00,WeatherDisplay:10.37,2013-08-26 17:48:00,
2013-08-26 14:03:00,82.6,28.5,30.12,SW,216,3.0,5.0,14,0.00,CLR,CLR,0.00,WeatherDisplay:10.37,2013-08-26 18:03:00,
2013-08-26 14:18:00,82.2,28.3,30.12,SW,219,2.0,5.0,14,0.00,CLR,CLR,0.00,WeatherDisplay:10.37,2013-08-26 18:18:00,
2013-08-26 14:33:00,81.1,27.4,30.12,SW,215,2.0,4.0,14,0.00,CLR,CLR,0.00,WeatherDisplay:10.37,2013-08-26 18:33:00,
2013-08-26 14:34:00,80.6,69.4,30.12,SW,223,2.0,6.0,69,0.00,CLR,CLR,0.00,WeatherDisplay:10.37,2013-08-26 18:34:00,
2013-08-26 14:35:00,80.6,69.4,30.12,SW,223,2.0,0.0,69,0.00,CLR,CLR,0.00,WeatherDisplay:10.37,2013-08-26 18:35:00,
2013-08-26 14:36:00,80.6,69.4,30.12,SW,223,2.0,0.0,69,0.00,CLR,CLR,0.00,WeatherDisplay:10.37,2013-08-26 18:36:00,
2013-08-26 14:37:00,80.6,69.4,30.12,SW,223,2.0,0.0,69,0.00,CLR,CLR,0.00,WeatherDisplay:10.37,2013-08-26 18:37:00,
2013-08-26 14:38:00,80.6,69.4,30.12,SW,223,2.0,0.0,69,0.00,CLR,CLR,0.00,WeatherDisplay:10.37,2013-08-26 18:38:00,
2013-08-26 14:39:00,80.6,69.4,30.12,SW,223,2.0,0.0,69,0.00,CLR,CLR,0.00,WeatherDisplay:10.37,2013-08-26 18:39:00,
2013-08-26 14:40:00,80.6,69.4,30.12,SW,223,2.0,0.0,69,0.00,CLR,CLR,0.00,WeatherDisplay:10.37,2013-08-26 18:40:00,
2013-08-26 14:41:00,80.6,69.4,30.12,SW,223,2.0,0.0,69,0.00,CLR,CLR,0.00,WeatherDisplay:10.37,2013-08-26 18:41:00,
2013-08-26 14:42:00,80.6,69.4,30.12,SW,223,2.0,0.0,69,0.00,CLR,CLR,0.00,WeatherDisplay:10.37,2013-08-26 18:42:00,
2013-08-26 14:43:00,80.6,69.4,30.12,SW,223,2.0,0.0,69,0.00,CLR,CLR,0.00,WeatherDisplay:10.37,2013-08-26 18:43:00,
2013-08-26 14:44:00,80.6,69.4,30.12,SW,223,2.0,0.0,69,0.00,CLR,CLR,0.00,WeatherDisplay:10.37,2013-08-26 18:44:00,
2013-08-26 14:45:00,80.6,69.4,30.12,SW,223,2.0,0.0,69,0.00,CLR,CLR,0.00,WeatherDisplay:10.37,2013-08-26 18:45:00,
2013-08-26 14:46:00,80.6,69.4,30.12,SW,223,2.0,0.0,69,0.00,CLR,CLR,0.00,WeatherDisplay:10.37,2013-08-26 18:46:00,
2013-08-26 14:47:00,80.6,69.4,30.12,SW,223,2.0,0.0,69,0.00,CLR,CLR,0.00,WeatherDisplay:10.37,2013-08-26 18:47:00,
2013-08-26 14:48:00,80.6,69.4,30.12,SW,223,2.0,0.0,69,0.00,CLR,CLR,0.00,WeatherDisplay:10.37,2013-08-26 18:48:00,
2013-08-26 18:33:00,72.3,34.5,30.12,SW,225,0.0,0.0,25,0.00,CLR,CLR,0.00,WeatherDisplay:10.37,2013-08-26 22:33:00,
2013-08-26 18:48:00,72.0,36.1,30.15,SW,225,0.0,0.0,27,0.00,CLR,CLR,0.00,WeatherDisplay:10.37,2013-08-26 22:48:00,
2013-08-26 19:03:00,72.0,38.0,30.15,SW,225,0.0,0.0,29,0.00,CLR,CLR,0.00,WeatherDisplay:10.37,2013-08-26 23:03:00,
2013-08-26 19:18:00,71.6,39.3,30.12,SW,225,0.0,0.0,31,0.00,CLR,CLR,0.00,WeatherDisplay:10.37,2013-08-26 23:18:00,
2013-08-26 19:33:00,71.4,40.0,30.12,SW,225,0.0,0.0,32,0.00,CLR,CLR,0.00,WeatherDisplay:10.37,2013-08-26 23:33:00,
2013-08-26 19:46:00,80.6,69.5,30.12,SW,225,8.5,8.5,69,0.00,CLR,,0.00,WeatherDisplay:10.37,2013-08-26 23:46:00,
2013-08-26 19:48:00,71.2,40.6,30.12,SW,225,0.0,0.0,33,0.00,CLR,CLR,0.00,WeatherDisplay:10.37,2013-08-26 23:48:00,
2013-08-26 19:51:00,80.2,69.6,30.12,WSW,248,2.3,2.3,70,0.00,CLR,,0.00,WeatherDisplay:10.37,2013-08-26 23:51:00,
2013-08-26 19:56:00,80.1,69.4,30.12,SW,225,2.3,2.3,70,0.00,CLR,,0.00,WeatherDisplay:10.37,2013-08-26 23:56:00,
2013-08-26 20:01:00,79.7,69.0,30.12,South,180,1.4,1.4,70,0.00,CLR,,0.00,WeatherDisplay:10.37,2013-08-27 00:01:00,
2013-08-26 20:03:00,71.1,40.5,30.12,SW,225,0.0,0.0,33,0.00,CLR,CLR,0.00,WeatherDisplay:10.37,2013-08-27 00:03:00,
2013-08-26 20:06:00,79.5,68.9,30.12,SW,225,2.3,2.3,70,0.00,CLR,,0.00,WeatherDisplay:10.37,2013-08-27 00:06:00,
2013-08-26 20:11:00,79.2,68.5,30.12,SW,225,2.3,2.3,70,0.00,CLR,,0.00,WeatherDisplay:10.37,2013-08-27 00:11:00,
2013-08-26 20:16:00,78.8,68.2,30.12,SW,225,2.3,2.3,70,0.00,CLR,,0.00,WeatherDisplay:10.37,2013-08-27 00:16:00,
2013-08-26 20:18:00,70.9,41.1,30.12,SW,223,0.0,0.0,34,0.00,CLR,CLR,0.00,WeatherDisplay:10.37,2013-08-27 00:18:00,
2013-08-26 20:21:00,78.6,68.0,30.12,SW,225,0.0,0.0,70,0.00,CLR,,0.00,WeatherDisplay:10.37,2013-08-27 00:21:00,
2013-08-26 20:26:00,78.3,67.7,30.12,SW,225,1.4,1.4,70,0.00,CLR,,0.00,WeatherDisplay:10.37,2013-08-27 00:26:00,
2013-08-26 20:31:00,78.1,67.5,30.12,SW,225,1.2,1.2,70,0.00,CLR,,0.00,WeatherDisplay:10.37,2013-08-27 00:31:00,
2013-08-26 20:33:00,70.9,41.1,30.12,South,180,0.0,1.0,34,0.00,CLR,CLR,0.00,WeatherDisplay:10.37,2013-08-27 00:33:00,
2013-08-26 20:36:00,77.9,67.3,30.12,SW,225,1.4,1.4,70,0.00,CLR,,0.00,WeatherDisplay:10.37,2013-08-27 00:36:00,
2013-08-26 20:41:00,77.5,67.0,30.12,SW,225,0.0,0.0,70,0.00,CLR,,0.00,WeatherDisplay:10.37,2013-08-27 00:41:00,
2013-08-26 20:46:00,77.4,66.8,30.12,SSW,202,0.0,0.0,70,0.00,CLR,,0.00,WeatherDisplay:10.37,2013-08-27 00:46:00,
2013-08-26 20:48:00,70.9,41.1,30.12,South,180,0.0,1.0,34,0.00,CLR,CLR,0.00,WeatherDisplay:10.37,2013-08-27 00:48:00,
2013-08-26 20:51:00,77.2,66.6,30.12,SSW,202,0.0,0.0,70,0.00,CLR,,0.00,WeatherDisplay:10.37,2013-08-27 00:51:00,
2013-08-26 20:56:00,77.0,66.5,30.12,SSW,202,1.2,1.2,70,0.00,CLR,,0.00,WeatherDisplay:10.37,2013-08-27 00:56:00,
2013-08-26 21:01:00,76.8,66.3,30.12,SSW,202,0.0,0.0,70,0.00,CLR,,0.00,WeatherDisplay:10.37,2013-08-27 01:01:00,
2013-08-26 21:03:00,70.5,41.5,30.12,South,180,0.0,0.0,35,0.00,CLR,CLR,0.00,WeatherDisplay:10.37,2013-08-27 01:03:00,
2013-08-26 21:06:00,76.6,66.1,30.12,SSW,202,0.0,0.0,70,0.00,CLR,,0.00,WeatherDisplay:10.37,2013-08-27 01:06:00,
2013-08-26 21:11:00,76.6,66.1,30.12,South,180,0.0,0.0,70,0.00,CLR,,0.00,WeatherDisplay:10.37,2013-08-27 01:11:00,
2013-08-26 21:16:00,76.5,65.9,30.12,South,180,0.0,0.0,70,0.00,CLR,,0.00,WeatherDisplay:10.37,2013-08-27 01:16:00,
2013-08-26 21:18:00,70.3,42.1,30.12,SSW,202,0.0,1.0,36,0.00,CLR,CLR,0.00,WeatherDisplay:10.37,2013-08-27 01:18:00,
2013-08-26 21:21:00,76.5,65.9,30.12,South,180,1.2,1.2,70,0.00,CLR,,0.00,WeatherDisplay:10.37,2013-08-27 01:21:00,
2013-08-26 21:26:00,76.3,65.8,30.12,South,180,1.2,0.0,70,0.00,CLR,,0.00,WeatherDisplay:10.37,2013-08-27 01:26:00,
2013-08-26 21:31:00,76.1,65.6,30.12,SSW,202,1.2,0.0,70,0.00,CLR,,0.00,WeatherDisplay:10.37,2013-08-27 01:31:00,
2013-08-26 21:33:00,70.2,42.7,30.09,SW,220,0.0,1.0,37,0.00,CLR,CLR,0.00,WeatherDisplay:10.37,2013-08-27 01:33:00,
2013-08-26 21:36:00,75.9,65.4,30.12,SSW,202,1.2,1.2,70,0.00,CLR,,0.00,WeatherDisplay:10.37,2013-08-27 01:36:00,
2013-08-26 21:41:00,75.7,66.5,30.12,SSW,202,0.0,0.0,73,0.00,CLR,,0.00,WeatherDisplay:10.37,2013-08-27 01:41:00,
2013-08-26 21:46:00,75.6,66.3,30.12,SSW,202,0.0,0.0,73,0.00,CLR,,0.00,WeatherDisplay:10.37,2013-08-27 01:46:00,
2013-08-26 21:48:00,70.0,42.5,30.12,SW,225,0.0,0.0,37,0.00,CLR,CLR,0.00,WeatherDisplay:10.37,2013-08-27 01:48:00,
2013-08-26 21:52:00,75.4,66.1,30.12,South,180,0.0,0.0,73,0.00,CLR,,0.00,WeatherDisplay:10.37,2013-08-27 01:52:00,
2013-08-26 21:57:00,75.2,65.9,30.12,South,180,1.2,0.0,73,0.00,CLR,,0.00,WeatherDisplay:10.37,2013-08-27 01:57:00,
2013-08-26 22:02:00,75.0,65.8,30.12,South,180,1.2,1.2,73,0.00,CLR,,0.00,WeatherDisplay:10.37,2013-08-27 02:02:00,
2013-08-26 22:03:00,69.6,42.2,30.09,SW,225,0.0,0.0,37,0.00,CLR,CLR,0.00,WeatherDisplay:10.37,2013-08-27 02:03:00,
2013-08-26 22:06:00,74.8,65.6,30.12,South,180,1.2,0.0,73,0.00,CLR,,0.00,WeatherDisplay:10.37,2013-08-27 02:06:00,
2013-08-26 22:12:00,74.8,66.8,30.12,South,180,0.0,0.0,76,0.00,CLR,,0.00,WeatherDisplay:10.37,2013-08-27 02:12:00,
2013-08-26 22:17:00,74.7,66.6,30.12,South,180,1.2,0.0,76,0.00,CLR,,0.00,WeatherDisplay:10.37,2013-08-27 02:17:00,
2013-08-26 22:18:00,69.6,43.6,30.12,SW,225,0.0,0.0,39,0.00,CLR,CLR,0.00,WeatherDisplay:10.37,2013-08-27 02:18:00,
2013-08-26 22:22:00,74.7,66.6,30.12,SW,225,0.0,0.0,76,0.00,CLR,,0.00,WeatherDisplay:10.37,2013-08-27 02:22:00,
2013-08-26 22:27:00,74.5,66.4,30.12,SW,225,1.2,0.0,76,0.00,CLR,,0.00,WeatherDisplay:10.37,2013-08-27 02:27:00,
2013-08-26 22:32:00,74.3,66.2,30.12,SW,225,1.2,0.0,76,0.00,CLR,,0.00,WeatherDisplay:10.37,2013-08-27 02:32:00,
2013-08-26 22:33:00,69.4,44.1,30.09,SW,225,0.0,0.0,40,0.00,CLR,CLR,0.00,WeatherDisplay:10.37,2013-08-27 02:33:00,
2013-08-26 22:37:00,74.3,66.2,30.12,SW,225,0.0,0.0,76,0.00,CLR,,0.00,WeatherDisplay:10.37,2013-08-27 02:37:00,
2013-08-26 22:42:00,74.1,66.1,30.12,SW,225,0.0,0.0,76,0.00,CLR,,0.00,WeatherDisplay:10.37,2013-08-27 02:42:00,
2013-08-26 22:47:00,73.9,65.9,30.15,SW,225,0.0,0.0,76,0.00,CLR,,0.00,WeatherDisplay:10.37,2013-08-27 02:47:00,
2013-08-26 22:48:00,69.3,43.9,30.12,SW,225,0.0,0.0,40,0.00,CLR,CLR,0.00,WeatherDisplay:10.37,2013-08-27 02:48:00,
2013-08-26 22:52:00,73.9,65.9,30.15,SW,225,0.0,0.0,76,0.00,CLR,,0.00,WeatherDisplay:10.37,2013-08-27 02:52:00,
2013-08-26 22:57:00,73.6,65.9,30.15,SW,225,0.0,0.0,77,0.00,CLR,,0.00,WeatherDisplay:10.37,2013-08-27 02:57:00,
2013-08-26 23:02:00,73.4,65.7,30.12,SW,225,0.0,0.0,77,0.00,CLR,,0.00,WeatherDisplay:10.37,2013-08-27 03:02:00,
2013-08-26 23:03:00,69.1,43.7,30.12,SW,225,0.0,0.0,40,0.00,CLR,CLR,0.00,WeatherDisplay:10.37,2013-08-27 03:03:00,
2013-08-26 23:07:00,73.2,65.9,30.12,SW,225,0.0,0.0,78,0.00,CLR,,0.00,WeatherDisplay:10.37,2013-08-27 03:07:00,
2013-08-26 23:12:00,73.2,65.9,30.12,SW,225,0.0,0.0,78,0.00,CLR,,0.00,WeatherDisplay:10.37,2013-08-27 03:12:00,
2013-08-26 23:17:00,72.9,65.6,30.15,SW,225,0.0,0.0,78,0.00,CLR,,0.00,WeatherDisplay:10.37,2013-08-27 03:17:00,
2013-08-26 23:18:00,69.1,45.0,30.12,South,184,0.0,1.0,42,0.00,CLR,CLR,0.00,WeatherDisplay:10.37,2013-08-27 03:18:00,
2013-08-26 23:22:00,72.7,65.8,30.15,SW,225,0.0,0.0,79,0.00,CLR,,0.00,WeatherDisplay:10.37,2013-08-27 03:22:00,
2013-08-26 23:27:00,72.7,65.8,30.15,SW,225,0.0,0.0,79,0.00,CLR,,0.00,WeatherDisplay:10.37,2013-08-27 03:27:00,
2013-08-26 23:33:00,69.1,45.0,30.15,SW,225,0.0,1.0,42,0.00,CLR,CLR,0.00,WeatherDisplay:10.37,2013-08-27 03:33:00,
2013-08-26 23:48:00,69.1,45.0,30.15,SW,225,0.0,1.0,42,0.00,CLR,CLR,0.00,WeatherDisplay:10.37,2013-08-27 03:48:00,